Location: Taupo
(38.6830°S, 176.0830°E)
Time: 12:57:29
(UTC+13:00)

Daily predictions for brighter satellites

Satellite Brightness Start Highest point End
(mag) Time Altitude Azimuth Time Altitude Azimuth Time Altitude Azimuth
Cosmos 1869 3.9 21:01:04 10° NNE 21:04:47 37° E 21:08:32 10° SSE
HJ-1C 3.5 21:01:48 10° SSE 21:05:14 59° E 21:08:34 10° N
Cosmos 1271 Rocket 2.9 21:01:13 10° S 21:05:16 63° E 21:09:17 10° NNE
Cosmos 1655 Rocket 4.2 20:59:15 10° N 21:05:36 84° W 21:11:58 10° S
Cosmos 2360 Rocket 3.9 21:04:52 10° ENE 21:07:09 12° E 21:09:26 10° ESE
Cosmos 1666 Rocket 3.8 21:04:06 10° S 21:08:35 56° E 21:12:58 10° NNE
Tiangong 2 2.5 21:06:51 10° W 21:09:41 29° NNW 21:12:29 10° NNE
Cosmos 1980 Rocket 2.7 21:04:33 10° NNW 21:10:15 70° WSW 21:15:59 10° SSE
Meteor 1-27 4.5 21:04:55 10° N 21:10:44 83° W 21:16:41 10° S
Lacrosse 5 2.0 21:11:49 10° SW 21:16:59 68° SE 21:22:00 10° NE
Cosmos 2228 Rocket 4.2 21:14:08 10° NE 21:17:45 25° E 21:21:24 10° SE
Cosmos 1805 Rocket 4.1 21:13:37 10° SSW 21:17:58 61° W 21:22:16 10° N
MOS 1 4.4 21:13:51 10° SSE 21:19:39 87° ENE 21:25:23 10° NNW
DELTA 2 R/B(2) 3.3 21:17:21 10° WNW 21:20:17 66° NNE 21:21:55 10° E
Cosmos 2322 Rocket 2.7 21:15:07 10° N 21:20:19 39° ENE 21:25:36 10° SE
Cosmos 1741 Rocket 4.3 21:16:48 10° NNW 21:22:08 77° WSW 21:27:33 10° SSE
ADEOS Rocket 3.8 21:19:02 10° NE 21:23:51 30° ESE 21:28:38 10° S
CZ-2D R/B 3.9 21:24:43 10° S 21:28:38 61° WSW 21:32:31 10° NNW
USA 186 1.6 21:26:27 10° SSE 21:29:16 46° E 21:31:51 10° N
Cosmos 1515 Rocket 4.0 21:25:47 10° NNE 21:30:02 43° E 21:34:21 10° SSE
Cosmos 1939 Rocket 3.0 21:30:01 10° S 21:34:15 86° WSW 21:38:26 10° NNW
Envisat 4.5 21:29:38 10° S 21:34:27 41° WSW 21:39:13 10° NW
NOAA 11 4.2 21:32:14 10° SSE 21:37:47 65° ENE 21:43:16 10° N
USA 32 4.4 21:32:51 10° NNW 21:38:04 68° W 21:43:23 10° S
ARGOS 4.3 21:35:01 10° SE 21:39:12 23° E 21:42:01 15° NE
Meteor 2-10 Rocket 4.3 21:34:57 10° NNW 21:39:57 54° WSW 21:45:11 10° S
Cosmos 2227 4.2 21:35:08 10° SSW 21:40:53 84° ESE 21:46:05 12° NNE
Resurs 01 Rocket 2.5 21:39:00 10° SE 21:42:56 29° E 21:45:44 16° NNE
Cosmos 292 Rocket 4.4 21:38:57 10° SSW 21:43:41 56° WNW 21:48:21 10° N
Cosmos 1633 4.5 21:41:58 10° SE 21:44:08 15° ESE 21:45:03 14° E
Cosmos 2263 Rocket 2.5 21:39:29 10° SSW 21:45:01 51° ESE 21:49:11 17° NE
Aureole 3 Rocket 2.9 21:45:06 10° S 21:48:39 82° W 21:53:17 10° N
CZ-2C R/B 2.8 21:48:35 15° NNE 21:53:03 59° ESE 21:58:23 10° S
Cosmos 1151 Rocket 3.1 21:50:40 10° N 21:54:58 80° W 21:59:21 10° S
Resurs 1-3 3.8 21:51:46 10° SSE 21:56:06 49° E 21:59:43 14° N
Cosmos 2208 Rocket 4.2 21:59:37 10° SSW 22:04:52 74° WNW 22:09:00 17° N
Cosmos 2315 Rocket 4.1 21:59:44 10° S 22:06:09 83° W 22:12:14 11° N
CZ-4C R/B 4.3 22:06:05 10° S 22:09:04 14° SSE 22:11:50 10° ESE
H-2A R/B 3.4 22:08:26 10° NNW 22:11:57 29° NNE 22:24:12 10° E
Cosmos 1356 4.1 22:12:25 33° ENE 22:12:36 34° E 22:15:49 10° SSE
Cosmos 540 Rocket 3.9 22:11:54 10° S 22:16:57 47° ESE 22:19:09 29° ENE
ATLAS 3B R/B 3.8 22:18:32 22° ENE 22:18:49 22° ENE 22:24:05 10° ESE
USA 238 DEB 4.1 22:16:01 10° N 22:22:54 44° ENE 22:29:44 10° SE
USA 238 4.1 22:16:08 10° N 22:23:00 44° ENE 22:29:49 10° SE
BREEZE-M DEB (TANK) 3.3 22:24:14 10° W 22:28:05 35° SSW 22:29:45 15° SE
Cosmos 2237 4.3 22:25:19 21° N 22:28:57 53° ENE 22:34:33 10° SSE
Cosmos 1862 3.7 22:25:03 10° SSW 22:29:04 60° W 22:31:06 27° NNW
Cosmos 1763 Rocket 4.1 22:26:12 10° SSW 22:31:18 52° WNW 22:34:28 22° N
Atlas Centaur 2 3.4 22:24:29 10° WNW 22:32:34 48° N 22:36:40 28° ENE
Cosmos 1869 Rocket 3.7 22:31:20 10° S 22:35:41 54° E 22:36:30 46° ENE
ERBS 3.8 22:33:23 10° SSW 22:36:28 27° SE 22:37:00 26° SE
Nimbus 7 Rocket 4.4 22:38:53 35° NNE 22:41:33 75° ESE 22:47:34 10° S
Cosmos 1486 Rocket 4.0 22:36:54 10° NNW 22:42:04 80° WSW 22:47:23 10° SSE
H-2A R/B 1.8 22:38:04 10° SSE 22:43:10 84° ENE 22:45:39 31° N
SL-08 R/B 4.4 22:39:25 19° N 22:43:56 86° W 22:50:12 10° S
ERS-1 Rocket 4.1 22:40:12 10° SE 22:44:02 27° E 22:44:02 27° E
SL-16 R/B 3.7 22:39:48 10° NW 22:45:02 37° WSW 22:50:19 10° S
Mayak 0.1 22:46:27 26° ESE 22:46:27 26° ESE 22:49:59 10° SSE
Cosmos 2360 Rocket 2.3 22:44:38 10° NNW 22:50:20 80° WSW 22:56:05 10° SSE
Cosmos 1707 Rocket 3.4 22:55:32 68° NE 22:55:56 74° E 23:00:20 10° S
Cosmos 1733 Rocket 4.4 22:54:20 10° SSE 22:57:44 27° ESE 22:57:44 27° ESE
Meteor 1-26 Rocket 4.2 22:55:59 40° N 22:58:13 77° E 23:04:00 10° SSE
Lacrosse 5 3.8 22:56:00 10° WSW 22:59:27 18° WNW 23:01:12 16° NW
NOSS 2-1 (E) 4.4 22:52:08 10° SSW 22:59:46 82° SE 23:01:31 49° NE
Cosmos 1242 Rocket 4.1 22:56:33 10° SSW 22:59:53 30° W 23:00:53 26° WNW
Cosmos 1933 4.2 22:58:17 29° NW 22:59:58 48° W 23:04:01 10° S
Helios 1B rocket 2.3 23:00:45 80° NNE 23:00:58 87° E 23:05:10 10° SSW
Cosmos 1844 Rocket 3.2 22:56:00 10° S 23:01:28 46° ESE 23:02:38 40° E
Cosmos 841 Rocket 4.4 22:57:05 10° SSW 23:02:07 43° WNW 23:04:13 29° NNW
COSMOS 2428 3.0 23:03:04 46° ENE 23:03:08 46° ENE 23:08:36 10° SE
Cosmos 2322 Rocket 4.1 22:59:34 10° WNW 23:04:26 29° WSW 23:09:23 10° S
NOSS 3-2 (C) 4.3 23:03:17 39° NNE 23:05:22 45° ENE 23:12:40 10° SE
Cosmos 1745 Rocket 4.2 23:05:15 26° NNW 23:09:00 72° W 23:15:25 10° S
Cosmos 968 Rocket 3.4 23:08:48 64° NE 23:09:17 68° ENE 23:14:32 10° SSE
ADEOS Rocket 4.1 23:05:50 17° NNW 23:09:20 32° W 23:14:17 10° SW
SPOT 1/Viking Rocket 4.2 23:05:05 10° SSE 23:09:30 38° E 23:09:30 38° E
Cosmos 1386 Rocket 4.5 23:09:16 35° NNW 23:12:05 79° W 23:18:15 10° S
Cosmos 1709 Rocket 4.0 23:15:10 53° NNE 23:16:31 67° E 23:22:45 10° SSE
Terra 3.5 23:14:32 10° SE 23:16:50 21° ESE 23:16:50 21° ESE
Cosmos 1633 4.2 23:15:56 10° SSW 23:19:03 27° W 23:19:15 27° W
Resurs 01 Rocket 3.8 23:15:39 10° SSW 23:19:15 24° WSW 23:22:48 10° WNW
ARGOS 4.2 23:14:29 10° S 23:19:36 43° WSW 23:23:31 16° NW
Cosmos 2322 4.0 23:18:11 25° NW 23:21:32 67° WSW 23:27:15 10° SSE
Cosmos 1862 Rocket 4.3 23:23:39 43° SE 23:23:39 43° SE 23:26:59 10° SSE
MetOp-B 4.3 23:18:55 10° S 23:24:19 71° WSW 23:25:59 44° NW
Meteor 1-25 Rocket 4.3 23:18:53 10° S 23:24:47 82° W 23:25:57 59° N
Cosmos 1606 3.4 23:25:39 52° WSW 23:25:39 52° WSW 23:29:21 10° S
CENTAUR R/B 3.6 23:28:52 35° E 23:28:52 35° E 23:34:30 10° SE
Cosmos 2263 Rocket 4.1 23:24:24 10° SW 23:28:30 21° W 23:30:54 16° NW
Meteor 2-6 Rocket 4.3 23:33:41 56° ESE 23:33:41 56° ESE 23:38:38 10° SSE
Cosmos 2333 Rocket 2.2 23:35:00 67° E 23:35:00 67° E 23:40:38 10° SSE
Cosmos 2219 Rocket 2.0 23:36:24 75° ENE 23:36:25 75° ENE 23:42:09 10° SSE
Cosmos 2278 Rocket 3.5 23:33:00 10° S 23:37:48 27° ESE 23:38:32 26° ESE
Cosmos 2181 Rocket 3.9 23:33:02 10° S 23:39:15 66° E 23:39:48 63° ENE
Meteor 2-21 4.3 23:43:30 68° ENE 23:43:41 68° E 23:49:45 10° SSE
SeaSat 1 2.4 23:39:11 10° SSE 23:44:00 82° S 23:44:00 82° S
Cosmos 2237 Rocket 3.3 23:51:01 32° ESE 23:51:01 32° ESE 23:54:36 10° SE
Cosmos 1340 Rocket 4.1 23:50:56 38° S 23:50:56 38° S 23:53:33 10° S
Cosmos 1818 4.4 23:47:57 23° WNW 23:51:00 47° SW 23:56:12 10° SSE
